Wind from 142 at 3 knots gusting 4

Air temperature 22.2° C
Dewpoint 13.3° C

Last reported at 2014-Apr-16 09:46 UTC.
Time now 2014-Apr-16 10:29 UTC

Location: S 27°35' E 153°18'.
View on Google Maps.

See reports from other nearby stations

Tides Stations Pressure Air Temp Water Temp Dewpoint Dewpoint depression Visibility Wind Speed Wind Dir Waves Ship positions

  
sailing weather and tide predictions

DW4188 Victoria Point QNL AU weather

date/time (UTC)wind fromknots sea level pressurealtimeterstation pressurevisibilityair tempwater tempwave heightnotes
2014-Apr-16 09:46 142 3 gusting 4 22.2
2014-Apr-16 09:37 149 2 gusting 5 22.2
2014-Apr-16 09:28 151 3 gusting 6 22.2
2014-Apr-16 09:19 150 1 gusting 3 22.2
2014-Apr-16 09:10 141 2 gusting 3 22.2
2014-Apr-16 08:43 144 2 gusting 3 22.8
2014-Apr-16 08:34 143 2 gusting 6 22.8
2014-Apr-16 08:25 122 5 gusting 4 22.8
2014-Apr-16 07:49 105 1 gusting 2 23.3
2014-Apr-16 07:31 118 1 gusting 1 23.9
2014-Apr-16 07:13 097 1 gusting 3 23.9
2014-Apr-16 07:04 110 1 gusting 2 23.9
2014-Apr-16 06:55 132 3 gusting 6 23.9
2014-Apr-16 06:47 120 3 gusting 6 23.9
2014-Apr-16 06:19 084 2 gusting 5 24.4
2014-Apr-16 05:52 098 3 gusting 6 25.0
2014-Apr-16 04:58 082 4 gusting 7 26.1
2014-Apr-16 04:49 080 3 gusting 5 26.1
2014-Apr-16 04:04 039 3 gusting 6 26.1
2014-Apr-16 03:55 059 2 gusting 3 25.6
2014-Apr-16 03:46 058 3 gusting 5 25.6
2014-Apr-16 03:01 033 1 gusting 5 26.1
2014-Apr-16 02:34 042 2 gusting 5 25.6
2014-Apr-16 02:25 034 3 gusting 5 25.6
2014-Apr-16 02:16 021 2 gusting 3 25.0
2014-Apr-16 02:07 026 2 gusting 4 25.6
2014-Apr-16 01:58 081 2 gusting 4 25.6
2014-Apr-16 01:22 144 3 gusting 4 24.4
2014-Apr-16 01:13 094 3 gusting 3 25.0
2014-Apr-16 00:19 215 0 gusting 2 23.3
2014-Apr-15 23:34 201 2 gusting 3 22.2
2014-Apr-15 23:16 184 1 gusting 2 21.7
2014-Apr-15 22:58 212 2 gusting 3 21.1
2014-Apr-15 22:40 218 2 gusting 5 21.1
2014-Apr-15 22:22 220 4 gusting 5 20.6
2014-Apr-15 22:04 217 2 gusting 5 20.0
2014-Apr-15 21:55 221 2 gusting 3 20.6
2014-Apr-15 21:46 240 20.0
2014-Apr-15 21:37 225 0 gusting 3 20.0
2014-Apr-15 21:28 250 0 gusting 3 20.6
2014-Apr-15 21:19 231 20.6
2014-Apr-15 21:10 232 1 gusting 3 20.0
2014-Apr-15 21:01 221 1 gusting 4 20.0
2014-Apr-15 20:52 229 2 gusting 4 20.0
2014-Apr-15 20:34 228 0 gusting 2 20.0
2014-Apr-15 20:25 231 0 gusting 3 19.4
2014-Apr-15 13:38 204 0 gusting 3 20.0
2014-Apr-15 12:30 208 0 gusting 1 20.6
2014-Apr-15 11:18 174 20.6
2014-Apr-15 11:09 160 0 gusting 2 20.0
2014-Apr-15 11:00 166 20.0
2014-Apr-15 10:51 155 20.0
2014-Apr-15 10:33 169 20.0
2014-Apr-15 10:24 161 2 gusting 5 20.0
2014-Apr-15 10:15 158 2 gusting 5 20.6
2014-Apr-15 10:06 161 2 gusting 6 20.6
2014-Apr-15 09:57 157 3 gusting 5 20.6
2014-Apr-15 09:48 163 2 gusting 5 20.6
2014-Apr-15 09:39 160 5 gusting 5 20.6
2014-Apr-15 09:30 157 2 gusting 6 20.6
2014-Apr-15 09:21 147 3 gusting 6 20.6
2014-Apr-15 09:12 151 3 gusting 7 20.6
2014-Apr-15 09:03 140 5 gusting 5 21.1
2014-Apr-15 08:45 158 1 gusting 3 21.1
2014-Apr-15 08:36 161 21.1
2014-Apr-15 08:27 155 1 gusting 7 21.1
2014-Apr-15 08:00 138 5 gusting 9 21.1
2014-Apr-15 07:51 144 5 gusting 9 21.1
2014-Apr-15 07:42 142 6 gusting 10 21.7
2014-Apr-15 07:24 141 6 gusting 11 21.7
2014-Apr-15 07:15 149 5 gusting 9 21.7
2014-Apr-15 07:06 138 5 gusting 11 22.2
2014-Apr-15 06:39 138 4 gusting 9 22.8
2014-Apr-15 06:03 140 7 gusting 13 23.3
2014-Apr-15 05:36 148 5 gusting 11 24.4
2014-Apr-15 05:00 129 5 gusting 9 23.9
2014-Apr-15 04:42 143 6 gusting 11 24.4
2014-Apr-15 04:24 133 6 gusting 13 24.4
2014-Apr-15 03:39 158 6 gusting 9 23.3
2014-Apr-15 03:03 141 7 gusting 14 24.4
2014-Apr-15 02:45 143 6 gusting 14 24.4
2014-Apr-15 02:36 136 7 gusting 13 23.9
2014-Apr-15 02:18 146 9 gusting 13 23.9
2014-Apr-15 02:00 145 10 gusting 13 25.0
2014-Apr-15 01:15 144 9 gusting 13 24.4
2014-Apr-15 00:39 146 4 gusting 13 24.4
2014-Apr-15 00:21 146 5 gusting 11 24.4
2014-Apr-14 23:54 153 5 gusting 13 23.9
2014-Apr-14 23:45 143 8 gusting 12 23.3
2014-Apr-14 23:36 143 6 gusting 13 23.3
2014-Apr-14 23:09 144 6 gusting 16 22.2
2014-Apr-14 22:51 139 5 gusting 10 22.2
2014-Apr-14 22:33 149 7 gusting 16 21.7
2014-Apr-14 22:15 151 6 gusting 14 21.7
2014-Apr-14 22:06 154 3 gusting 9 21.1
2014-Apr-14 21:48 151 3 gusting 10 21.1
2014-Apr-14 21:21 152 3 gusting 5 20.6
2014-Apr-14 21:12 158 0 gusting 6 20.0
2014-Apr-14 20:36 170 0 gusting 3 19.4
2014-Apr-14 20:27 159 0 gusting 5 19.4
2014-Apr-14 19:51 155 1 gusting 4 19.4
2014-Apr-14 19:33 164 2 gusting 6 19.4
2014-Apr-14 19:24 150 1 gusting 6 19.4
2014-Apr-14 19:06 157 3 gusting 5 20.0
2014-Apr-14 18:57 154 4 gusting 6 20.0
2014-Apr-14 18:39 160 3 gusting 7 20.0
2014-Apr-14 18:21 159 5 gusting 10 20.0
2014-Apr-14 17:54 154 4 gusting 8 20.0
2014-Apr-14 17:27 159 1 gusting 10 20.0
2014-Apr-14 17:18 163 3 gusting 9 20.6
2014-Apr-14 17:09 163 4 gusting 9 20.6
2014-Apr-14 17:00 156 5 gusting 10 20.0
2014-Apr-14 16:51 152 3 gusting 6 20.0
2014-Apr-14 16:42 159 5 gusting 8 20.0
2014-Apr-14 16:24 153 6 gusting 13 20.6
2014-Apr-14 16:15 158 8 gusting 11 20.6
2014-Apr-14 15:57 154 6 gusting 9 20.6
2014-Apr-14 15:48 151 7 gusting 11 20.6
2014-Apr-14 15:12 153 7 gusting 10 20.6
2014-Apr-14 15:03 149 5 gusting 10 20.6
2014-Apr-14 14:54 147 7 gusting 13 20.6
2014-Apr-14 14:45 152 6 gusting 13 20.6
2014-Apr-14 14:00 145 5 gusting 9 20.6
2014-Apr-14 13:42 157 7 gusting 11 20.6
2014-Apr-14 13:15 155 5 gusting 11 20.6
2014-Apr-14 13:06 153 6 gusting 11 20.6
2014-Apr-14 12:30 153 7 gusting 10 20.6
2014-Apr-14 12:21 149 6 gusting 7 20.6
2014-Apr-14 12:12 157 2 gusting 9 20.6
2014-Apr-14 12:03 153 5 gusting 11 20.6
2014-Apr-14 11:54 165 5 gusting 11 20.6
2014-Apr-14 11:09 161 6 gusting 8 20.6
2014-Apr-14 11:00 141 5 gusting 10 20.6
2014-Apr-14 10:42 157 1 gusting 9 20.6